Preview of NWS' New Version of Forecast
This preview is not operational and should not be used for support decisions.
Latest weather observations around

St. Louis Downtown Airport (KCPS)

Using English Units (Switch to International System of Units)
Date/ Time (CDT) Wind (mph) Vis. (mi) Weather Sky Cond. Temp (°F) Rel. Humidity Wind Chill (°F) Heat Index (°F) Pressure Precip. (in)
Air Dwpt 6 hour Altimeter (inHg) Sea level (inHg) 1 hr 3 hr 6 hr
Max Min
Sep 15 02:53 SSE 3 10 Clear CLR 66 59     78%     30.12 30.11      
Sep 15 01:53 S 3 10 Clear CLR 65 60     84%     30.14 30.13      
Sep 15 00:53 SSE 5 10 Clear CLR 66 59     78%     30.15 30.14      
Sep 14 23:53 Calm 10 Clear CLR 68 59     73%     30.16 30.15      
Sep 14 22:53 SE 3 10 Clear CLR 72 58     61%   72 30.16 30.15      
Sep 14 21:53 Calm 10 Clear CLR 72 59     64%   72 30.16 30.15      
Sep 14 20:53 SSE 6 10 Clear CLR 73 59     61%   73 30.15 30.14      
Sep 14 19:53 SSE 7 10 Clear CLR 74 60     62%   74 30.14 30.13      
Sep 14 18:53 SSE 6 10 Clear CLR 77 61     58%   77 30.13 30.12      
Sep 14 17:53 SSE 9 10 Clear CLR 82 60     47%   82 30.14 30.13      
Sep 14 16:53 SSE 8 10 Clear CLR 84 59     43%   84 30.15 30.14      
Sep 14 15:53 SSE 10 10 Clear CLR 84 59     43%   84 30.18 30.16      
Sep 14 14:53 SSE 7 10 Clear CLR 84 60     44%   84 30.2 30.19      
Sep 14 13:53 SE 9 10 Clear CLR 84 59     43%   84 30.21 30.2      
Sep 14 12:53 SSE 8 10 Clear CLR 81 59     47%   81 30.23 30.22      
Sep 14 11:53 S 7 10 Clear CLR 77 60     56%   77 30.25 30.24      
Sep 14 10:53 SE 10 10 Clear CLR 75 60     60%   75 30.26 30.25      
Sep 14 09:53 SE 7 10 Clear CLR 73 60     64%   73 30.28 30.27      
Sep 14 08:53 SSE 5 10 Clear CLR 69 61     75%     30.28 30.27      
Sep 14 07:53 Calm 10 Clear CLR 62 59     90%     30.27 30.26      
Sep 14 06:53 Calm 10 Clear CLR 58 57     97%     30.25 30.24      
Sep 14 05:53 Calm 10 Clear CLR 58 56     93%     30.25 30.24      
Sep 14 04:53 Calm 10 Clear CLR 58 57     97%     30.23 30.22      
Sep 14 03:53 Calm 10 Clear CLR 59 57     93%     30.22 30.21      
Sep 14 02:53 Calm 10 Clear CLR 61 58     90%     30.22 30.22      
Sep 14 01:53 Calm 10 Clear CLR 63 59     87%     30.22 30.22      
Sep 14 00:53 Calm 10 Clear CLR 63 58     84%     30.22 30.21      
Sep 13 23:53 Calm 10 Clear CLR 63 58     84%     30.21 30.2      
Sep 13 22:53 W 3 10 Clear CLR 67 56     68%     30.21 30.19      
Sep 13 21:53 NW 5 10 Clear CLR 67 56     68%     30.2 30.18      
Sep 13 20:53 NW 7 10 Clear   70 54     57%     30.19 30.18      
Sep 13 19:53 W 5 10 Clear CLR 73 55     53%   73 30.17 30.15      
Sep 13 18:53 W 8 10 Clear CLR 77 56     48%   77 30.15 30.14      
Sep 13 17:53 W 9 10 Clear CLR 81 54     39%   81 30.15 30.14      
Sep 13 16:53 W 10 10 Clear CLR 82 55     40%   81 30.15 30.14      
Sep 13 15:53 W 8 10 Clear CLR 83 59     44%   83 30.15 30.14      
Sep 13 14:53 WSW 10 10 Clear CLR 82 60     47%   82 30.15 30.14      
Sep 13 13:53 W 10 10 Clear CLR 82 62     51%   83 30.16 30.15      
Sep 13 12:53 WNW 9 10 Clear CLR 82 65     56%   84 30.16 30.15      
Sep 13 11:53 WSW 8 10 Clear CLR 81 61     51%   82 30.16 30.15      
Sep 13 10:53 WNW 9 10 Clear CLR 80 62     54%   81 30.16 30.14      
Sep 13 09:53 WSW 7 10 Clear CLR 80 68     67%   83 30.15 30.14      
Sep 13 08:53 WNW 10 10 Mostly Cloudy SCT100 BKN120 76 69     79%   77 30.13 30.12      
Sep 13 07:53 WSW 5 10 Mostly Clear FEW120 76 69     79%   77 30.11 30.1      
Sep 13 06:53 W 6 10 Mostly Clear FEW070 75 68     79%   76 30.09 30.07      
Sep 13 05:53 W 5 10 Clear CLR 74 68     82%   75 30.08 30.06      
Sep 13 04:53 SSW 6 10 Partly Cloudy SCT070 75 69     82%   76 30.06 30.04      
Sep 13 03:53 WSW 6 10 Clear CLR 77 68     74%   78 30.05 30.03      
Sep 13 02:53 SE 6 10 Clear CLR 73 68     84%   74 30.04 30.02      
Notice The following observation data may not be complete
Sep 13 01:53 SE 6 10 Clear CLR   68      %     30.05 30.03      
Sep 13 00:53 S 5 10 Clear CLR 76 68     76%   77 30.05 30.03      
Sep 12 23:53 Calm 10 Clear CLR 74 68     82%   75 30.05 30.03      
Sep 12 22:53 SSE 5 10 Clear CLR 77 68     74%   78 30.06 30.04      
Sep 12 21:53 SSE 3 10 Clear CLR 75 68     79%   76 30.05 30.03      
Sep 12 20:53 Calm 10 Clear CLR 78 69     74%   79 30.03 30.02      
Sep 12 19:53 SSE 3 10 Clear CLR 80 70     71%   83 30.01 30      
Sep 12 18:53 SW 3 10 Clear CLR 87 69     55%   91 30.01 29.99      
Sep 12 17:53 S 3 10 Mostly Clear FEW050 89 70     53%   94 30.01 30      
Sep 12 17:45 S 7 10 Mostly Clear FEW002 90 70     52%   95 30.01        
Sep 12 16:53 S 8 10 Mostly Clear FEW050 91 71     52%   98 30.03 30.01      
Sep 12 15:53 S 9 10 Clear CLR 91 72     54%   99 30.04 30.03      
Sep 12 14:53 S 10 10 Mostly Clear FEW050 91 71     52%   98 30.06 30.04      
Sep 12 13:53 S 7 10 Clear CLR 91 73     56%   100 30.08 30.06      
Sep 12 12:53 WSW 5 10 Clear CLR 90 73     58%   98 30.1 30.08      
Sep 12 11:53 SW 6 10 Clear CLR 88 74     63%   97 30.11 30.09      
Sep 12 10:53 5 10 Clear CLR 85 72     65%   91 30.11 30.1      
Sep 12 09:53 SW 5 10 Mostly Clear FEW090 83 72     70%   88 30.12 30.11      
Sep 12 08:53 Calm 10 Clear CLR 80 72     76%   84 30.12 30.11      
Sep 12 07:53 SSE 5 10 Clear CLR 74 70     87%   75 30.12 30.11      
Sep 12 06:53 S 5 10 Clear CLR 71 69     93%   72 30.13 30.11      
Sep 12 05:53 S 5 10 Clear CLR 72 69     91%   73 30.1 30.09      
Sep 12 04:53 SSE 3 8 Clear CLR 70 69     97%     30.09 30.08      
Sep 12 03:53 Calm 10 Clear CLR 71 68     90%   72 30.07 30.06      
May 15 06:53 NW 11 10 Clear CLR 70 61     73%     29.92 29.91     0
May 15 03:53 W 9 10 Clear   71 60     68%   71 29.88 29.86   0  
May 14 19:44   10 Light Rain FEW075 BKN100 66 63     90%     29.88   0    
May 14 18:26   1.75 Light Rain FEW060 BKN070 OVC095 82 58     44%   82 29.92   0    
May 13 11:53 WSW 9 10 Mostly Cloudy SCT044 BKN055 85 66     53%   87 30.01 29.99      
May 13 07:53 5 10 Clear CLR 75 64     69%   75 30.03 30.01      
May 12 03:53 S 6 10 Clear CLR 72 58     61%   72 29.93 29.92      
Jun 12 07:53 S 7 10 Clear CLR 78 66     67%   79 30.04 30.02      
Jun 10 20:53 S 3 10 Clear CLR 78 57     48%   78 29.9 29.88      
Jun 10 15:53 S 13 10 Clear CLR 88 54     31%   86 29.9 29.88      
Jun 09 15:53 WSW 8 10 Clear   85 50     30%   83 29.88 29.88      
Jun 09 14:53 W 8 10 Clear CLR 86 49     28%   83 29.9 29.89      
Jun 09 12:53 W 9 10 Clear CLR 83 49     31%   81 29.93 29.92      
Jun 09 03:53 Calm 10 Clear CLR 56 51     84%     29.9 29.89      
Jun 08 15:53 N 6 10 Clear CLR 82 46     28%   80 29.94 29.93      
Jun 07 15:53 ENE 10 10 Clear CLR 81 44     27%   80 30.02 30.01      
Jun 06 02:53 NNE 10 10 Clear CLR 68 55     63%     29.89 29.88